This demonstration page uses our WeatherBlox Daily Observations layout. Learn more.

Left ArrowRight Arrow

Hourly Observations for June 19, 2018

Temp ( °F °C ) Dew Point ( °F °C ) Humidity (%) Winds ( mph kmh ) Pressure ( in mb ) Visibility ( mi km ) Precip ( " mm )
12:53 am 00:53 Cloudy with Light Rain 57 13.9 54 12.2 90 90 ENE 10 17 30.09 1019 10 16 0.00 0.03
1:53 am 01:53 Cloudy with Light Rain 56 13.3 55 12.8 97 97 NE 10 17 30.09 1019 10 16 0.00 0.03
2:53 am 02:53 Cloudy with Light Rain 56 13.3 54 12.2 93 93 NE 10 17 30.09 1019 9 14 0.03 0.76
3:53 am 03:53 Cloudy with Light Rain 55 12.8 54 12.2 96 96 ENE 15 24 30.08 1019 10 16 0.06 1.52
4:53 am 04:53 Cloudy with Light Rain 55 12.8 54 12.2 96 96 NE 14 22 30.09 1019 6 10 0.02 0.51
5:53 am 05:53 Cloudy 55 12.8 54 12.2 96 96 NE 13 20 30.09 1019 10 16 0.03 0.76
6:53 am 06:53 Cloudy 56 13.3 55 12.8 97 97 NE 14 22 30.09 1019 10 16 0.00 0.00
7:53 am 07:53 Cloudy with Light Rain 57 13.9 55 12.8 93 93 NNE 16 26 30.09 1019 10 16 0.00 0.03
8:24 am 08:24 Cloudy 59 15 55 13 88 88 NE 18 30 30.03 1017 10 16 0.00 0.00
8:53 am 08:53 Cloudy 59 15 55 12.8 87 87 NNE 16 26 30.08 1019 10 16 0.00 0.03
9:33 am 09:33 Cloudy 61 16.1 55 12.8 81 81 NE 17 28 30.00 1016 10 16 0.00 0.00
9:53 am 09:53 Cloudy 61 16.1 54 12.2 78 78 NE 14 22 30.07 1018 10 16 0.00 0.00
10:28 am 10:28 Cloudy 61 16 55 13 83 83 E 17 28 30.03 1017 10 16 0.00 0.00
10:53 am 10:53 Cloudy 61 16.1 55 12.8 81 81 E 18 30 30.07 1018 8 13 0.00 0.00
11:53 am 11:53 Cloudy with Light Rain 60 15.6 57 13.9 90 90 E 16 26 30.08 1019 5 8 0.01 0.25
12:53 pm 12:53 Cloudy 65 18.3 56 13.3 73 73 E 18 30 30.07 1018 10 16 0.00 0.03
1:53 pm 13:53 Cloudy 65 18.3 54 12.2 68 68 E 20 31 30.08 1019 10 16 0.00 0.00
2:53 pm 14:53 Mostly Cloudy 69 20.6 54 12.2 59 59 E 20 31 30.06 1018 10 16 0.00 0.00
3:53 pm 15:53 Mostly Cloudy 68 20 54 12.2 61 61 E 13 20 30.06 1018 10 16 0.00 0.00
4:53 pm 16:53 Cloudy 65 18.3 57 13.9 76 76 ENE 9 15 30.09 1019 10 16 0.00 0.00
5:53 pm 17:53 Cloudy with Light Rain 65 18.3 58 14.4 78 78 ESE 12 19 30.09 1019 10 16 0.00 0.03
6:53 pm 18:53 Mostly Cloudy 66 18.9 57 13.9 73 73 ENE 6 9 30.08 1019 10 16 0.00 0.03
7:53 pm 19:53 Cloudy 65 18.3 58 14.4 78 78 NE 3 6 30.09 1019 10 16 0.00 0.00
8:53 pm 20:53 Partly Cloudy 64 17.8 57 13.9 78 78 ENE 3 6 30.09 1019 10 16 0.00 0.00
9:53 pm 21:53 Mostly Cloudy 61 16.1 57 13.9 87 87 Calm 30.11 1020 10 16 0.00 0.00
10:53 pm 22:53 Mostly Clear 58 14.4 56 13.3 93 93 Calm 30.13 1020 10 16 0.00 0.00
11:53 pm 23:53 Mostly Clear 59 15 56 13.3 90 90 Calm 30.13 1020 10 16 0.00 0.00

Powered by AerisWeather